Погода в Явожно

Польша     50°11′17″N   19°16′20″E
темп.,
°C
ветер,
м/с
пор.,
м/с
влажн.,
%
обл.,
%
осадки,
мм/ч
давл.,
гПа
погр.,
м
23 октября, сб
сб2323:00+9зюз6144853 0.0 10151378
02:00+8з6146495 0.0 10171649
05:00+7з612705 0.2 10191269
08:00+6з511678 0.2 10211076
11:00+8з6105529 0.0 10231413
14:00+9зсз61152100 0.4 10231694
17:00+9сз5105562 0.4 10241337
20:00+7зсз49655 0.4 1027884
24 октября, вс
вс2423:00+6з39728 0.0 1029547
02:00+5з37786 0.0 1031324
05:00+4з24835 0.0 1031184
08:00+4з13855 0.0 1033147
11:00+7зюз2269100 0.0 1033569
14:00+10з115261 0.0 1032802
17:00+9юв1253100 0.0 1031467
20:00+7вюв256294 0.0 1030165
25 октября, пн
пн2523:00+6юв25695 0.0 1031133
02:00+5юв24735 0.0 103098
05:00+4ююв23705 0.0 102980
08:00+4ююв23655 0.0 102879
11:00+9ю23435 0.0 1027302
14:00+13юз24347 0.0 1026655
17:00+11ю114046 0.0 102524
20:00+9ююз124824 0.0 102530
26 октября, вт
вт2623:00+7юз11554 0.0 102533
02:00+6ююз12592 0.0 102569
05:00+5ю236117 0.0 102587
08:00+5ю2361100 0.0 102595
11:00+9юз2550100 0.0 1024346
14:00+11юз3646100 0.0 1023730
17:00+10зюз2652100 0.0 1023395
20:00+8юз265788 0.0 1024257
27 октября, ср
ср2723:00+7зюз276420 0.0 1025191
02:00+6юз25686 0.0 1025126
05:00+6юз236776 0.0 1025104
08:00+7зюз126681 0.0 102677
11:00+10з235815 0.0 1026375
14:00+12з22555 0.0 1026747
17:00+11з11635 0.0 102620
20:00+9ю11743 0.0 102810